#timestamp,LO_Frequency,Hit,StdDev 
1710471615.6,286046999.7,N
1710471635.4,286047001.0,N
1710471655.2,286047000.2,N
1710471675.1,286047000.0,N
1710471676.0,286047000.0,N
1710471695.8,286046998.1,N
1710471715.6,286046999.1,N
1710471735.5,286046998.5,N
1710471755.3,286046998.3,N
1710471775.2,286046998.8,N
1710471795.0,286046999.0,N
1710471795.9,286046999.0,N
1710471815.8,286046998.4,N
1710471835.6,286046998.5,N
1710471855.4,286046999.6,N
1710471875.3,286046996.8,Y
1710471895.1,286046998.8,P
1710471915.9,286046998.7,P
1710471935.7,286047001.2,N
1710471955.5,286047000.0,N
1710471975.4,286047002.1,N
1710471995.2,286047002.1,N
1710472015.1,286047002.5,N
1710472016.0,286047002.5,N
1710472035.8,286047000.2,N
1710472055.6,286047002.4,N
1710472075.5,286047000.2,N
1710472095.3,286047002.4,N
1710472115.2,286047001.6,N
1710472135.9,286047001.7,N
1710472155.7,286047001.4,N
1710472175.6,286047004.4,Y
1710472195.4,286047002.4,P
1710472215.3,286046999.8,N
1710472235.1,286047000.4,N
1710472236.0,286047000.4,N
1710472255.8,286047000.6,N
1710472275.7,286046998.4,N
1710472295.5,286046999.0,N
1710472315.4,286046996.6,N
1710472335.2,286046998.8,N
1710472355.0,286046999.4,N
1710472355.9,286046999.4,N
1710472375.8,286046997.1,N
1710472395.6,286046999.6,N
1710472415.4,286046996.6,N
1710472435.3,286046996.6,N
1710472455.1,286046997.7,N
1710472475.9,286046998.0,N
1710472495.7,286046996.6,N
1710472515.5,286046999.0,N
1710472535.4,286046999.4,N
1710472555.2,286046998.3,N
1710472575.1,286046996.5,N
1710472576.0,286046996.5,N
1710472595.8,286046997.6,N
1710472615.6,286046997.5,N
1710472635.5,286046998.0,N
1710472655.3,286046996.8,N
1710472675.2,286046999.6,N
1710472695.9,286046999.0,N
1710472715.7,286046998.8,N
1710472735.6,286046998.7,N
1710472755.4,286046998.1,N
1710472775.2,286047001.2,N
1710472795.1,286046999.4,N
1710472796.0,286046999.4,N
1710472815.8,286046999.1,N
1710472835.7,286046996.5,N
1710472855.5,286046997.4,N
1710472875.3,286046997.3,N
1710472895.2,286046997.5,N
1710472915.0,286046997.1,N
1710472915.9,286046997.1,N
1710472935.7,286046999.1,N
1710472955.6,286046996.6,N
1710472975.4,286046997.5,N
1710472995.3,286046996.6,N
1710473015.1,286046996.5,N
1710473035.8,286046999.6,N
1710473055.7,286046997.7,N
1710473075.5,286046999.3,N
1710473095.4,286046998.5,N
1710473115.2,286046998.7,N
1710473135.0,286046999.4,N
1710473135.9,286046999.4,N
1710473155.8,286046998.2,N
1710473175.6,286046999.9,N
1710473195.4,286047000.1,N
1710473215.3,286047000.0,N
1710473235.1,286047000.8,N
1710473255.9,286046999.4,N
1710473275.7,286046996.9,N
1710473295.5,286046999.6,N
1710473315.4,286046997.3,N
1710473335.2,286046999.5,N
1710473355.0,286046999.6,N
1710473356.0,286046999.6,N
1710473375.8,286046998.2,N
1710473395.6,286047001.2,N
1710473415.5,286047000.7,N
1710473435.3,286047000.7,N
1710473455.1,286047001.2,N
1710473475.9,286046998.4,N
1710473495.7,286046998.8,N
1710473515.6,286046997.7,N
1710473535.4,286046995.2,Y
1710473555.2,286046997.0,P
1710473575.1,286046997.0,N
1710473576.0,286046997.0,P
1710473595.8,286046999.1,N
1710473615.6,286046998.8,N
1710473635.5,286046999.9,N
1710473655.3,286047001.2,N
1710473675.2,286046998.1,N
1710473695.9,286047000.8,N
1710473715.7,286047001.1,N
1710473735.6,286047000.9,N
1710473755.4,286047000.3,N
1710473775.2,286047001.0,N
1710473795.1,286047000.8,N
1710473796.0,286047000.8,N
1710473815.8,286047001.0,N
1710473835.7,286047000.6,N
1710473855.5,286047001.2,N
1710473875.3,286047000.6,N
1710473895.2,286046998.6,N
1710473915.0,286047000.7,N
1710473915.9,286047000.7,N
1710473935.8,286046999.8,N
1710473955.6,286047002.8,N
1710473975.4,286047000.4,N
1710473995.3,286047002.8,N
1710474015.1,286047000.5,N
1710474035.9,286046998.6,N
1710474055.7,286046998.5,N
1710474075.5,286046996.9,N
1710474095.4,286046996.5,N
1710474115.2,286046997.1,N
1710474135.1,286046999.6,N
1710474136.0,286046999.6,N
1710474155.8,286046998.7,N
1710474175.6,286046999.6,N
1710474195.5,286046998.4,N
1710474215.3,286047000.9,N
1710474235.2,286047000.5,N
1710474255.9,286047000.0,N
1710474275.7,286046998.1,N
1710474295.6,286047000.8,N
1710474315.4,286046999.8,N
1710474335.2,286047000.8,N
1710474355.1,286046999.8,N
1710474356.0,286046999.8,N
1710474375.8,286046999.8,N
1710474395.7,286047002.7,N
1710474415.5,286047002.6,N
1710474435.3,286047002.2,N
1710474455.2,286047002.5,N
1710474475.0,286047002.5,N
1710474475.9,286047002.5,N
1710474495.8,286047002.8,N
1710474515.6,286047000.2,N
1710474535.4,286046999.1,N
1710474555.3,286046996.6,N
1710474575.1,286046999.1,N
1710474595.8,286047001.1,N
1710474615.7,286047000.6,N
1710474635.5,286047002.6,N
1710474655.4,286047001.6,N
1710474675.2,286047004.4,N
1710474695.0,286047001.8,N
1710474695.9,286047001.8,N
1710474715.8,286047001.5,N
1710474735.6,286047002.7,N
1710474755.4,286047002.8,N
1710474775.3,286047002.6,N
1710474795.1,286047000.1,N
1710474815.9,286047000.1,N
1710474835.7,286046999.9,N
1710474855.5,286047000.2,N
1710474875.4,286047000.2,N
1710474895.2,286047002.6,N
1710474915.0,286047001.9,N
1710474915.9,286047001.9,N
1710474935.8,286047001.7,N
1710474955.6,286046999.7,N
1710474975.5,286047002.8,N
1710474995.3,286047000.0,N
1710475015.1,286047001.0,N
1710475035.9,286046998.1,N
1710475055.7,286046998.4,N
1710475075.5,286047000.8,N
1710475095.4,286046999.9,N
1710475115.2,286047001.2,N
1710475135.1,286047000.4,N
1710475136.0,286047000.4,N
1710475155.8,286046998.7,N
1710475175.7,286046998.2,N
1710475195.5,286047000.6,N
